Location: Garbet
(42.8837°N, 1.2115°E)
Time: 04:49:13
(UTC+00:00)

Cosmos 1953 Rocket - Pass Details

Date: 18 March 2026
Orbit: 599 x 626 km, 82.5° (Epoch: 15 April)

Event Time Altitude Azimuth Distance (km) Brightness Sun altitude
Rises 18:35:43 0° 189° (S) 2,830 7.0 -6.5°
Reaches altitude 10° 18:37:54 10° 191° (S) 1,933 6.2 -6.9°
Maximum altitude 18:42:11 80° 278° (W) 616 3.7 -7.6°
Drops below altitude 10° 18:46:30 10° 6° (N) 1,957 6.2 -8.4°
Sets 18:48:44 0° 8° (N) 2,868 7.0 -8.8°
